[[{"header":{"parameterUnit":"m.s-1","parameterCategory":1,"la1":30.2991,"la2":30.254,"lo1":-89.0895,"lo2":-89.0444,"dy":0.0017,"dx":0.0017,"nx":28,"ny":28,"refTime":"2025-02-28T03:00:00:Z","depth":0,"parameterNumber":2,"parameterNumberName":"U-component_of_WINDS"},"data":[0,0,0,0,0,0,0,0,0,0,0,0,0,0,0,0,0,0,0,0,0,0,0,0,0,0,0,0,0,0,0,0,0,0,0,0,0,0,0,0,0,0,0,0,0,0,0,0,0,0,0,0,0,0,0,0,0,0,1.6214,1.6215,0,1.627,1.6271,1.6271,1.6282,1.6281,1.6281,1.628,1.6341,1.6343,1.6345,0,0,0,0,0,0,0,0,0,0,0,0,0,1.6121,1.6122,1.6214,1.6215,1.6216,1.627,1.6271,1.6272,1.6282,1.6281,1.6281,1.628,1.634,1.6342,1.6345,0,0,0,0,0,0,0,0,0,0,0,0,0,1.6167,1.6123,1.6214,1.6227,1.6229,1.627,1.6271,1.6272,1.6282,1.6281,1.628,1.628,1.6339,1.6342,1.6345,1.6378,0,0,1.6355,1.6356,0,0,0,0,0,0,0,0,1.6165,1.6171,1.6225,1.6226,1.6228,1.6268,1.626,1.6308,1.6282,1.6262,1.628,1.6279,1.6317,1.6322,1.6334,1.6381,1.6383,1.6355,1.6357,1.6358,1.6359,0,0,0,0,0,0,0,1.6162,1.6169,1.6237,1.6225,1.6228,1.6232,1.6238,1.6269,1.6293,1.6264,1.6264,1.6271,1.6318,1.6331,1.6336,1.6384,1.6355,1.6357,1.6359,1.6361,1.6463,1.6464,0,0,0,0,0,0,1.6155,1.6166,1.6235,1.6238,1.6194,1.6234,1.624,1.6256,1.6293,1.6297,1.6271,1.6271,1.6326,1.6332,1.6338,1.638,1.6358,1.6361,1.6363,1.6463,1.6464,1.6465,0,0,0,0,0,0,1.6153,1.6161,1.6233,1.6202,1.6212,1.6236,1.6254,1.6258,1.6271,1.6298,1.6303,1.628,1.6326,1.6334,1.6368,1.6383,1.6362,1.6365,1.6462,1.6463,1.6464,1.6465,0,0,0,0,0,0,1.6151,1.6161,1.6172,1.6202,1.6213,1.6261,1.6255,1.6259,1.6276,1.6276,1.6308,1.6312,1.6326,1.6364,1.6371,1.6386,1.6367,1.646,1.6462,1.6464,1.6463,1.6466,1.6468,0,0,0,0,0,1.6147,1.617,1.6173,1.6181,1.6228,1.6261,1.6268,1.6282,1.6276,1.6289,1.6308,1.6311,1.638,1.6367,1.6376,1.6392,1.646,1.6462,1.6464,1.6462,1.6465,1.6468,0,0,0,0,0,0,1.6142,1.6174,1.6178,1.6211,1.6233,1.6263,1.6279,1.6284,1.6309,1.6309,1.6326,1.6334,1.6368,1.6383,1.6369,1.6427,1.6419,1.6423,1.6416,1.6419,1.6421,1.6417,1.637,0,0,0,0,0,1.6144,1.6168,1.6195,1.6222,1.6233,1.6254,1.6269,1.6279,1.6303,1.6313,1.6333,1.6358,1.6385,1.6403,1.6429,1.6466,1.6474,1.6481,1.6483,1.6485,1.6489,1.6511,1.6515,1.6471,1.6471,1.6471,0,0,1.615,1.6171,1.6184,1.6222,1.624,1.6265,1.6262,1.6288,1.6308,1.6317,1.6351,1.6367,1.6396,1.6432,1.6449,1.6446,1.6503,1.6488,1.6489,1.6491,1.6514,1.6518,1.6522,1.6473,1.6472,1.6472,0,0,1.6174,1.6191,1.6216,1.6235,1.6262,1.6277,1.6283,1.6312,1.6323,1.6358,1.6365,1.639,1.6435,1.6456,1.6473,1.6506,1.6511,1.6514,1.6526,1.6548,1.6551,1.6554,1.6568,1.6572,1.6517,1.6517,1.6517,0,1.6177,1.6214,1.6228,1.6255,1.6272,1.6281,1.6307,1.6325,1.6361,1.6373,1.6369,1.6428,1.6448,1.649,1.6498,1.6511,1.652,1.6511,1.6549,1.6553,1.6556,1.6569,1.6574,1.6518,1.6518,1.6517,1.6517,0,1.6219,1.6244,1.6262,1.6295,1.6314,1.6341,1.636,1.6378,1.6386,1.6401,1.6437,1.6462,1.6494,1.6505,1.6513,1.6549,1.6546,1.6545,1.6538,1.656,1.6573,1.6578,1.6518,1.6518,1.6518,1.6518,0,0,1.6239,1.6281,1.6288,1.6304,1.6336,1.6357,1.6385,1.6416,1.6432,1.6456,1.6481,1.6521,1.6521,1.6539,1.655,1.6569,1.6596,1.6567,1.6568,1.6573,1.664,1.6641,1.6646,1.66,1.6601,1.6602,1.6638,0,1.6268,1.6316,1.6331,1.6372,1.6398,1.6407,1.6432,1.6455,1.6471,1.6496,1.6513,1.6541,1.6538,1.655,1.6569,1.6589,1.661,1.6586,1.6625,1.6626,1.6618,1.6653,1.6654,1.6687,1.6643,1.6644,1.6644,0,1.6307,1.6332,1.6376,1.6407,1.6418,1.644,1.647,1.6493,1.6521,1.6531,1.6553,1.6562,1.6594,1.6584,1.6629,1.6612,1.6629,1.6641,1.6643,1.6648,1.6637,1.666,1.6697,1.6703,1.6652,1.6651,1.6651,0,1.632,1.6365,1.6397,1.6411,1.6447,1.6462,1.6478,1.6505,1.6524,1.6551,1.6563,1.6594,1.6611,1.6636,1.6654,1.6645,1.6698,1.6689,1.6708,1.6708,1.6719,1.6719,1.6761,1.6728,1.6728,1.6728,1.6728,0,1.635,1.6377,1.6404,1.6424,1.6455,1.6472,1.6503,1.652,1.6544,1.6569,1.6579,1.6603,1.6625,1.6652,1.6667,1.6702,1.671,1.672,1.6724,1.672,1.6719,1.6732,1.673,1.673,1.6729,1.6729,1.6729,0,1.6369,1.6388,1.6425,1.6456,1.6465,1.6487,1.6515,1.6536,1.6552,1.6584,1.6592,1.6618,1.665,1.6671,1.6712,1.6722,1.6762,1.6764,1.6752,1.6754,1.6773,1.6771,1.6826,1.6835,1.6795,1.6795,1.6796,0,1.6388,1.6409,1.6443,1.646,1.6477,1.6504,1.6523,1.6541,1.6561,1.6595,1.6612,1.6645,1.6673,1.6725,1.6748,1.678,1.6784,1.6802,1.6789,1.6785,1.6787,1.6785,1.6788,1.6804,1.6804,1.6804,1.6805,0,1.642,1.6428,1.6455,1.6485,1.6507,1.6532,1.6557,1.6571,1.6594,1.6616,1.6649,1.667,1.6713,1.6746,1.6781,1.6799,1.6807,1.6808,1.6815,1.6811,1.6804,1.6809,1.6759,1.6807,1.6807,1.6806,1.6806,1.6806,1.644,1.646,1.6488,1.6518,1.6538,1.6562,1.6584,1.6603,1.663,1.6666,1.6676,1.6711,1.674,1.6787,1.6806,1.6835,1.6833,1.6842,1.6844,1.6847,1.6848,1.6798,1.6841,1.6841,1.6841,1.6841,1.6841,0,1.6473,1.6492,1.6519,1.6554,1.6578,1.6582,1.6611,1.6631,1.6661,1.6687,1.6714,1.6754,1.6787,1.6813,1.6847,1.6866,1.687,1.6874,1.6873,1.6878,1.6847,1.6838,1.687,1.687,1.687,1.687,1.687,1.687,1.6494,1.6528,1.654,1.6586,1.6605,1.6639,1.6655,1.6678,1.6699,1.6742,1.6769,1.6786,1.6813,1.685,1.6881,1.6888,1.6901,1.6904,1.6912,1.6883,1.688,1.6877,1.6869,1.6907,1.6907,1.6941,1.6942,1.6942]},{"header":{"parameterUnit":"m.s-1","parameterCategory":1,"la1":30.2991,"la2":30.254,"lo1":-89.0895,"lo2":-89.0444,"dy":0.0017,"dx":0.0017,"nx":28,"ny":28,"refTime":"2025-02-28T03:00:00:Z","depth":0,"parameterNumber":3,"parameterNumberName":"V-component_of_WINDS"},"data":[0,0,0,0,0,0,0,0,0,0,0,0,0,0,0,0,0,0,0,0,0,0,0,0,0,0,0,0,0,0,0,0,0,0,0,0,0,0,0,0,0,0,0,0,0,0,0,0,0,0,0,0,0,0,0,0,0,0,1.2143,1.2144,0,1.2254,1.2256,1.2257,1.2231,1.2229,1.2227,1.2225,1.2338,1.2343,1.2348,0,0,0,0,0,0,0,0,0,0,0,0,0,1.1904,1.1909,1.2143,1.2145,1.2146,1.2254,1.2256,1.2257,1.2232,1.2229,1.2227,1.2224,1.2336,1.2342,1.2348,0,0,0,0,0,0,0,0,0,0,0,0,0,1.2011,1.191,1.2143,1.2146,1.2148,1.2254,1.2256,1.2258,1.2232,1.2229,1.2226,1.2223,1.2334,1.2342,1.2349,1.2459,0,0,1.2372,1.2375,0,0,0,0,0,0,0,0,1.2005,1.202,1.2144,1.2146,1.2148,1.2226,1.2213,1.2325,1.2233,1.22,1.2225,1.2221,1.2303,1.2313,1.2341,1.2464,1.2469,1.2373,1.2377,1.238,1.2382,0,0,0,0,0,0,0,1.1998,1.2015,1.2187,1.2146,1.2148,1.2141,1.2152,1.2234,1.2268,1.2203,1.2201,1.2215,1.2304,1.2334,1.2343,1.247,1.2372,1.2379,1.2384,1.2386,1.2683,1.2686,0,0,0,0,0,0,1.1989,1.2009,1.2184,1.219,1.2067,1.2148,1.2161,1.2204,1.2267,1.2274,1.2217,1.2213,1.2322,1.2335,1.2347,1.2476,1.238,1.2387,1.2391,1.2679,1.2683,1.2687,0,0,0,0,0,0,1.1984,1.2005,1.2179,1.2099,1.2121,1.2155,1.2204,1.2208,1.2238,1.2278,1.2284,1.2242,1.232,1.2337,1.243,1.2479,1.2391,1.2397,1.2675,1.2681,1.2685,1.2736,0,0,0,0,0,0,1.1977,1.2003,1.2047,1.21,1.2125,1.2262,1.2207,1.2212,1.2251,1.2247,1.2303,1.2309,1.2319,1.2419,1.2437,1.2488,1.2403,1.2671,1.2678,1.2684,1.273,1.2743,1.2753,0,0,0,0,0,1.1969,1.2058,1.2049,1.207,1.218,1.2265,1.2279,1.2289,1.2255,1.2298,1.2323,1.2307,1.2471,1.2429,1.2449,1.2503,1.2668,1.2676,1.2683,1.2725,1.274,1.2753,0,0,0,0,0,0,1.201,1.2065,1.2056,1.2165,1.221,1.226,1.2315,1.2305,1.2361,1.2354,1.2364,1.2376,1.247,1.2496,1.2448,1.2609,1.2564,1.2576,1.2589,1.2604,1.2615,1.2606,1.2409,0,0,0,0,0,1.2031,1.2096,1.2141,1.2232,1.2255,1.2281,1.2318,1.2322,1.2369,1.2388,1.242,1.2465,1.2526,1.2567,1.2626,1.2734,1.2743,1.278,1.2792,1.2801,1.2811,1.2865,1.2881,1.2712,1.2712,1.2712,0,0,1.2077,1.2115,1.2156,1.2241,1.2277,1.2341,1.2297,1.2369,1.2417,1.2399,1.2488,1.2512,1.2563,1.2663,1.2709,1.2687,1.2859,1.281,1.2817,1.2823,1.2875,1.2891,1.2905,1.2717,1.2716,1.2716,0,0,1.2193,1.223,1.2308,1.2343,1.2397,1.2412,1.2431,1.2482,1.2497,1.2586,1.2572,1.2628,1.2735,1.277,1.2802,1.2926,1.2912,1.2945,1.3004,1.3057,1.307,1.3082,1.3123,1.3137,1.2955,1.2955,1.2955,0,1.2243,1.2341,1.235,1.2421,1.2457,1.2443,1.252,1.2554,1.2624,1.2648,1.2623,1.2753,1.2787,1.2893,1.2922,1.295,1.2969,1.2939,1.3067,1.3079,1.309,1.3129,1.3145,1.2958,1.2958,1.2958,1.2957,0,1.2398,1.2466,1.2522,1.2589,1.2631,1.2706,1.2723,1.2765,1.2763,1.2781,1.2869,1.2909,1.2973,1.2998,1.2999,1.3103,1.3087,1.3065,1.302,1.311,1.3146,1.3162,1.2963,1.2962,1.2961,1.296,0,0,1.2545,1.2612,1.2632,1.266,1.2716,1.2768,1.2839,1.2902,1.2936,1.2983,1.3042,1.313,1.3108,1.3144,1.3147,1.3194,1.3284,1.3165,1.3166,1.3183,1.3397,1.3413,1.343,1.3276,1.3279,1.3281,1.3392,0,1.2664,1.2791,1.2798,1.2913,1.2973,1.2958,1.3019,1.3059,1.3076,1.3128,1.3147,1.3208,1.3176,1.3197,1.3242,1.3264,1.3327,1.3256,1.3328,1.333,1.3314,1.345,1.3468,1.3571,1.3407,1.3409,1.3411,0,1.2821,1.2871,1.2991,1.3033,1.3059,1.3115,1.317,1.3221,1.3264,1.3272,1.331,1.3306,1.3376,1.3328,1.3424,1.3375,1.3404,1.3419,1.3423,1.3429,1.3375,1.3458,1.3604,1.3619,1.3434,1.3432,1.3431,0,1.2912,1.301,1.3093,1.3118,1.3171,1.3209,1.3233,1.3273,1.3308,1.3355,1.3378,1.3433,1.3463,1.3505,1.3514,1.3479,1.3608,1.3562,1.3615,1.3615,1.3643,1.3641,1.3795,1.3665,1.3665,1.3664,1.3664,0,1.3043,1.3116,1.3134,1.3186,1.3266,1.3272,1.3351,1.3372,1.3406,1.3459,1.3449,1.3499,1.3508,1.3559,1.3567,1.3642,1.3657,1.3664,1.3665,1.3664,1.3663,1.3683,1.3675,1.3668,1.3668,1.3667,1.3666,0,1.3159,1.3175,1.3264,1.3305,1.3317,1.3374,1.3408,1.3456,1.347,1.3537,1.3553,1.3575,1.3634,1.3647,1.3718,1.3722,1.3811,1.3806,1.3797,1.3796,1.3847,1.3841,1.4018,1.404,1.3897,1.3899,1.39,0,1.3241,1.3297,1.3343,1.3377,1.3402,1.3459,1.3494,1.35,1.3537,1.3587,1.3628,1.3685,1.3732,1.3826,1.3847,1.39,1.3895,1.3953,1.3903,1.3899,1.3892,1.3888,1.3892,1.3962,1.3964,1.3965,1.3966,0,1.3384,1.3388,1.3439,1.3492,1.3534,1.3576,1.3616,1.3645,1.3656,1.3697,1.3757,1.3793,1.3862,1.3918,1.397,1.3992,1.398,1.3981,1.3996,1.3995,1.3986,1.3989,1.3821,1.3977,1.3976,1.3975,1.3975,1.3974,1.3484,1.3531,1.357,1.3626,1.3656,1.3692,1.3738,1.3757,1.3807,1.3864,1.3864,1.3928,1.3965,1.4033,1.4058,1.4106,1.4088,1.411,1.4115,1.412,1.4123,1.3979,1.4116,1.4116,1.4115,1.4115,1.4115,0,1.3624,1.3647,1.3699,1.3754,1.3797,1.3781,1.3823,1.386,1.3916,1.3952,1.3996,1.4062,1.4115,1.414,1.4191,1.4225,1.422,1.4238,1.4235,1.424,1.4138,1.4119,1.4241,1.4241,1.4241,1.4241,1.4241,1.4241,1.3702,1.3779,1.3787,1.3877,1.39,1.3962,1.3987,1.4019,1.4047,1.4121,1.4165,1.418,1.4209,1.4262,1.4309,1.4314,1.4333,1.4353,1.4355,1.426,1.4247,1.4235,1.4217,1.4357,1.4357,1.4452,1.4453,1.4454]}]]